When you browse on this site, cookies collect data to enhance your experience and personalize the content and advertising you see.
Visit our Privacy Policy to learn more. By continuing to use the site, you agree to this use of cookies and data.
  • In Hungary
  • List of Countries
  • For 7 days
  • Water Temperature
  • Weather Map
  • News
  • Weather Widgets
  • user-avatar
    Login

    Hourly Weather Platerow

    Today, 23 September, Monday

    Time Temperature Precipitation Wind Pressure Humidity
    00:00 +12°C° 0 mm 2 mps 748 mmHg 86%
    01:00 +10°C° 0 mm 3 mps 749 mmHg 91%
    02:00 +10°C° 0 mm 3 mps 749 mmHg 95%
    03:00 +10°C° 0 mm 3 mps 749 mmHg 92%
    04:00 +10°C° 0 mm 4 mps 749 mmHg 89%
    05:00 +8°C° 0 mm 4 mps 749 mmHg 86%
    06:00 +8°C° 0 mm 4 mps 749 mmHg 83%
    07:00 +8°C° 0 mm 5 mps 750 mmHg 79%
    08:00 +9°C° 0 mm 5 mps 751 mmHg 74%
    09:00 +9°C° 0 mm 5 mps 751 mmHg 72%
    10:00 +10°C° 0 mm 5 mps 751 mmHg 69%
    11:00 +10°C° 0 mm 5 mps 751 mmHg 66%
    12:00 +12°C° 0 mm 5 mps 751 mmHg 63%
    13:00 +13°C° 0 mm 5 mps 751 mmHg 60%
    14:00 +14°C° 0 mm 5 mps 750 mmHg 56%
    15:00 +14°C° 0 mm 4 mps 750 mmHg 57%
    16:00 +13°C° 0 mm 4 mps 750 mmHg 57%
    17:00 +13°C° 0 mm 4 mps 750 mmHg 58%
    18:00 +12°C° 0 mm 4 mps 750 mmHg 61%
    19:00 +10°C° 0 mm 4 mps 751 mmHg 64%
    20:00 +8°C° 0 mm 4 mps 751 mmHg 67%
    21:00 +7°C° 0 mm 4 mps 751 mmHg 65%
    22:00 +7°C° 0 mm 4 mps 751 mmHg 64%
    23:00 +6°C° 0 mm 4 mps 751 mmHg 63%

    Tomorrow, 24 September, Tuesday

    Time Temperature Precipitation Wind Pressure Humidity
    00:00 +7°C° 0 mm 3 mps 751 mmHg 63%
    01:00 +5°C° 0 mm 3 mps 751 mmHg 64%
    02:00 +5°C° 0 mm 3 mps 751 mmHg 65%
    03:00 +4°C° 0 mm 3 mps 751 mmHg 66%
    04:00 +4°C° 0 mm 3 mps 751 mmHg 68%
    05:00 +3°C° 0 mm 3 mps 750 mmHg 69%
    06:00 +4°C° 0 mm 3 mps 750 mmHg 67%
    07:00 +5°C° 0 mm 3 mps 750 mmHg 65%
    08:00 +5°C° 0 mm 4 mps 750 mmHg 62%
    09:00 +7°C° 0 mm 4 mps 750 mmHg 58%
    10:00 +10°C° 0 mm 4 mps 750 mmHg 54%
    11:00 +12°C° 0 mm 4 mps 750 mmHg 50%
    12:00 +14°C° 0 mm 3 mps 750 mmHg 49%
    13:00 +16°C° 0 mm 3 mps 749 mmHg 47%
    14:00 +17°C° 0 mm 3 mps 749 mmHg 45%
    15:00 +16°C° 0 mm 3 mps 749 mmHg 47%
    16:00 +16°C° 0 mm 2 mps 748 mmHg 49%
    17:00 +16°C° 0 mm 2 mps 748 mmHg 51%
    18:00 +14°C° 0 mm 2 mps 748 mmHg 56%
    19:00 +11°C° 0 mm 3 mps 748 mmHg 61%
    20:00 +10°C° 0 mm 3 mps 748 mmHg 66%
    21:00 +9°C° 0 mm 3 mps 748 mmHg 68%
    22:00 +9°C° 0 mm 3 mps 748 mmHg 70%
    23:00 +8°C° 0 mm 3 mps 748 mmHg 72%

    Day after tomorrow, 25 September, Wednesday

    Time Temperature Precipitation Wind Pressure Humidity
    00:00 +8°C° 0 mm 3 mps 748 mmHg 74%
    01:00 +7°C° 0 mm 3 mps 747 mmHg 77%
    02:00 +7°C° 0 mm 3 mps 747 mmHg 80%
    03:00 +7°C° 0 mm 3 mps 747 mmHg 80%
    04:00 +7°C° 0 mm 3 mps 747 mmHg 80%
    05:00 +7°C° 0 mm 3 mps 746 mmHg 81%
    06:00 +7°C° 0 mm 3 mps 746 mmHg 78%
    07:00 +7°C° 0 mm 4 mps 746 mmHg 74%
    08:00 +8°C° 0 mm 4 mps 745 mmHg 71%
    09:00 +10°C° 0 mm 4 mps 745 mmHg 68%
    10:00 +12°C° 0 mm 4 mps 745 mmHg 65%
    11:00 +14°C° 0 mm 4 mps 745 mmHg 61%
    12:00 +15°C° 0 mm 4 mps 745 mmHg 59%
    13:00 +17°C° 0 mm 4 mps 745 mmHg 57%
    14:00 +18°C° 0 mm 4 mps 744 mmHg 54%
    15:00 +18°C° 0 mm 4 mps 744 mmHg 57%
    16:00 +18°C° 0 mm 3 mps 744 mmHg 60%
    17:00 +18°C° 0 mm 2 mps 744 mmHg 62%
    18:00 +17°C° 0 mm 2 mps 744 mmHg 67%
    19:00 +15°C° 0 mm 2 mps 744 mmHg 73%
    20:00 +13°C° 0 mm 3 mps 744 mmHg 78%
    21:00 +14°C° 0 mm 2 mps 744 mmHg 80%
    22:00 +14°C° 0 mm 2 mps 744 mmHg 82%
    23:00 +13°C° 0 mm 2 mps 744 mmHg 85%

    26 September, Thursday

    Time Temperature Precipitation Wind Pressure Humidity
    00:00 +13°C° 0 mm 2 mps 744 mmHg 86%
    01:00 +13°C° 0 mm 2 mps 744 mmHg 86%
    02:00 +13°C° 0 mm 2 mps 744 mmHg 87%
    03:00 +13°C° 0 mm 2 mps 744 mmHg 90%
    04:00 +13°C° 0 mm 2 mps 744 mmHg 92%
    05:00 +12°C° 0 mm 2 mps 744 mmHg 94%
    06:00 +13°C° 0 mm 2 mps 744 mmHg 92%
    07:00 +13°C° 0 mm 2 mps 744 mmHg 90%
    08:00 +13°C° 0 mm 2 mps 744 mmHg 88%
    09:00 +14°C° 0 mm 2 mps 744 mmHg 83%
    10:00 +16°C° 0 mm 2 mps 745 mmHg 78%
    11:00 +17°C° 0 mm 2 mps 745 mmHg 73%
    12:00 +18°C° 0.1 mm 1 mps 745 mmHg 71%
    13:00 +19°C° 0.1 mm 1 mps 745 mmHg 70%
    14:00 +19°C° 0.1 mm 1 mps 745 mmHg 68%
    15:00 +19°C° 0.4 mm 1 mps 745 mmHg 70%
    16:00 +19°C° 0.4 mm 1 mps 745 mmHg 72%
    17:00 +19°C° 0.4 mm 1 mps 745 mmHg 75%
    18:00 +16°C° 0.2 mm 1 mps 746 mmHg 80%
    19:00 +15°C° 0.2 mm 1 mps 746 mmHg 86%
    20:00 +14°C° 0.2 mm 2 mps 746 mmHg 92%
    21:00 +13°C° 0 mm 2 mps 746 mmHg 92%
    22:00 +13°C° 0 mm 2 mps 747 mmHg 93%
    23:00 +13°C° 0 mm 1 mps 747 mmHg 94%

    27 September, Friday

    Time Temperature Precipitation Wind Pressure Humidity
    00:00 +12°C° 0 mm 2 mps 747 mmHg 94%
    01:00 +12°C° 0 mm 2 mps 747 mmHg 95%
    02:00 +12°C° 0 mm 2 mps 747 mmHg 95%
    03:00 +12°C° 0 mm 2 mps 747 mmHg 95%
    04:00 +10°C° 0 mm 2 mps 748 mmHg 95%
    05:00 +10°C° 0 mm 2 mps 748 mmHg 95%
    06:00 +12°C° 0 mm 2 mps 748 mmHg 94%
    07:00 +12°C° 0 mm 2 mps 748 mmHg 92%
    08:00 +12°C° 0 mm 2 mps 748 mmHg 91%
    09:00 +14°C° 0 mm 2 mps 748 mmHg 86%
    10:00 +15°C° 0 mm 2 mps 749 mmHg 82%
    11:00 +16°C° 0 mm 2 mps 749 mmHg 77%
    12:00 +17°C° 0 mm 2 mps 749 mmHg 73%
    13:00 +18°C° 0 mm 2 mps 749 mmHg 70%
    14:00 +19°C° 0 mm 2 mps 749 mmHg 66%
    15:00 +18°C° 0 mm 2 mps 748 mmHg 67%
    16:00 +18°C° 0 mm 2 mps 748 mmHg 68%
    17:00 +18°C° 0 mm 2 mps 748 mmHg 69%
    18:00 +17°C° 0 mm 2 mps 748 mmHg 75%
    19:00 +16°C° 0 mm 3 mps 748 mmHg 80%
    20:00 +13°C° 0 mm 3 mps 748 mmHg 85%
    21:00 +13°C° 0 mm 3 mps 748 mmHg 87%
    22:00 +13°C° 0 mm 3 mps 749 mmHg 88%
    23:00 +12°C° 0 mm 3 mps 749 mmHg 90%

    28 September, Saturday

    Time Temperature Precipitation Wind Pressure Humidity
    00:00 +12°C° 0 mm 3 mps 749 mmHg 90%
    01:00 +12°C° 0 mm 3 mps 748 mmHg 90%
    02:00 +12°C° 0 mm 3 mps 748 mmHg 89%
    03:00 +12°C° 0.4 mm 3 mps 748 mmHg 90%
    04:00 +13°C° 0.4 mm 3 mps 748 mmHg 91%
    05:00 +13°C° 0.4 mm 4 mps 748 mmHg 91%
    06:00 +13°C° 0.4 mm 4 mps 747 mmHg 91%
    07:00 +13°C° 0.4 mm 4 mps 747 mmHg 92%
    08:00 +13°C° 0.4 mm 4 mps 747 mmHg 92%
    09:00 +14°C° 0.1 mm 4 mps 747 mmHg 88%
    10:00 +17°C° 0.1 mm 4 mps 747 mmHg 84%
    11:00 +18°C° 0.1 mm 4 mps 748 mmHg 79%
    12:00 +19°C° 0.4 mm 4 mps 747 mmHg 75%
    13:00 +20°C° 0.4 mm 5 mps 747 mmHg 70%
    14:00 +21°C° 0.4 mm 5 mps 747 mmHg 66%
    15:00 +20°C° 0.4 mm 4 mps 746 mmHg 68%
    16:00 +20°C° 0.4 mm 3 mps 746 mmHg 71%
    17:00 +19°C° 0.4 mm 3 mps 746 mmHg 73%
    18:00 +18°C° 0.2 mm 3 mps 746 mmHg 77%
    19:00 +17°C° 0.2 mm 3 mps 746 mmHg 80%
    20:00 +15°C° 0.2 mm 4 mps 746 mmHg 84%
    21:00 +16°C° 0 mm 3 mps 746 mmHg 85%
    22:00 +14°C° 0 mm 3 mps 747 mmHg 87%
    23:00 +13°C° 0 mm 3 mps 747 mmHg 88%
    Show more